TimeCDT,TemperatureF,Dew PointF,Humidity,Sea Level PressureIn,VisibilityMPH,Wind Direction,Wind SpeedMPH,Gust SpeedMPH,PrecipitationIn,Events,Conditions,WindDirDegrees,DateUTC
12:54 AM,44.1,34.0,68,30.32,10.0,South,11.5,-,N/A,,Scattered Clouds,170,2013-04-22 05:54:00
1:54 AM,43.0,33.1,68,30.31,10.0,South,11.5,-,N/A,,Scattered Clouds,170,2013-04-22 06:54:00
2:54 AM,41.0,33.1,73,30.29,10.0,SSE,11.5,-,N/A,,Scattered Clouds,150,2013-04-22 07:54:00
3:54 AM,39.0,32.0,76,30.29,10.0,South,8.1,-,N/A,,Scattered Clouds,180,2013-04-22 08:54:00
4:54 AM,39.0,33.1,79,30.29,10.0,South,6.9,-,N/A,,Mostly Cloudy,170,2013-04-22 09:54:00
5:54 AM,39.9,33.1,77,30.27,10.0,SE,8.1,-,N/A,,Scattered Clouds,140,2013-04-22 10:54:00
6:54 AM,39.9,33.1,77,30.27,10.0,SSE,4.6,-,N/A,,Scattered Clouds,150,2013-04-22 11:54:00
7:54 AM,45.0,34.0,65,30.27,10.0,South,9.2,-,N/A,,Mostly Cloudy,170,2013-04-22 12:54:00
8:54 AM,50.0,36.0,59,30.27,10.0,South,8.1,-,N/A,,Scattered Clouds,170,2013-04-22 13:54:00
9:54 AM,54.0,36.0,51,30.26,10.0,South,12.7,-,N/A,,Mostly Cloudy,180,2013-04-22 14:54:00
10:54 AM,57.9,37.0,46,30.25,10.0,South,15.0,-,N/A,,Mostly Cloudy,170,2013-04-22 15:54:00
11:54 AM,61.0,37.9,42,30.24,10.0,South,13.8,-,N/A,,Scattered Clouds,190,2013-04-22 16:54:00
12:54 PM,64.0,39.9,41,30.19,10.0,South,12.7,20.7,N/A,,Mostly Cloudy,170,2013-04-22 17:54:00
1:54 PM,66.0,37.9,36,30.17,10.0,South,16.1,21.9,N/A,,Mostly Cloudy,180,2013-04-22 18:54:00
2:54 PM,66.9,39.9,37,30.13,10.0,SSE,16.1,21.9,N/A,,Mostly Cloudy,160,2013-04-22 19:54:00
3:54 PM,66.9,37.9,34,30.11,10.0,South,15.0,-,N/A,,Mostly Cloudy,180,2013-04-22 20:54:00
4:54 PM,66.9,37.0,33,30.07,10.0,SSE,15.0,-,N/A,,Mostly Cloudy,160,2013-04-22 21:54:00
5:54 PM,64.0,37.9,38,30.06,10.0,SSE,17.3,-,N/A,,Mostly Cloudy,150,2013-04-22 22:54:00
6:54 PM,63.0,39.0,41,30.06,10.0,SSE,15.0,-,N/A,,Mostly Cloudy,160,2013-04-22 23:54:00
7:54 PM,59.0,39.9,49,30.06,10.0,SE,9.2,-,N/A,,Mostly Cloudy,140,2013-04-23 00:54:00
8:54 PM,57.0,39.9,53,30.06,10.0,SSE,10.4,-,N/A,,Mostly Cloudy,150,2013-04-23 01:54:00
9:54 PM,55.9,39.9,55,30.06,10.0,SSE,12.7,-,N/A,,Mostly Cloudy,160,2013-04-23 02:54:00
10:54 PM,55.9,39.0,53,30.06,10.0,SSE,9.2,-,N/A,,Mostly Cloudy,150,2013-04-23 03:54:00
11:54 PM,55.0,39.9,57,30.04,10.0,SE,6.9,-,N/A,,Overcast,140,2013-04-23 04:54:00